Location: Deuenbach
(49.1275°N, 10.3070°E)
Time: 07:54:57
(UTC+00:00)

Daily predictions for brighter satellites

Satellite Brightness Start Highest point End
(mag) Time Altitude Azimuth Time Altitude Azimuth Time Altitude Azimuth
NOSS 0 Rocket 4.4 19:30:23 10° SW 19:36:31 70° WNW 19:42:43 10° NNE
Cosmos 2056 Rocket 4.2 19:32:20 10° NNW 19:37:33 44° ENE 19:42:39 10° SE
Lacrosse 5 2.0 19:33:12 10° NW 19:38:20 89° NNE 19:43:28 10° SE
USA 276 1.5 19:39:30 10° W 19:41:40 67° N 19:43:55 10° E
Ariane Rocket 4.0 19:37:27 10° SE 19:41:56 33° ENE 19:46:27 10° N
Meteor 1-5 Rocket 4.5 19:36:19 10° N 19:42:15 64° ENE 19:48:00 10° SSE
IRS-1C Rocket 4.3 19:37:57 10° SSE 19:43:07 60° ENE 19:48:19 10° N
Cosmos 44 3.7 19:38:42 10° NNW 19:43:34 53° NE 19:48:05 10° ESE
CZ-4 R/B 3.9 19:40:53 10° SW 19:43:34 18° W 19:46:16 10° NW
Lacrosse 5 rocket 1.6 19:39:58 10° SSW 19:44:06 48° SE 19:48:12 10° ENE
Cosmos 2369 Rocket 3.1 19:39:48 10° NNW 19:44:59 37° NE 19:50:10 10° ESE
Cosmos 1812 Rocket 3.6 19:41:02 10° S 19:45:26 68° E 19:49:49 10° NNE
ATLAS 5 CENTAUR R/B 4.0 19:42:51 10° WNW 19:46:59 24° WSW 19:51:46 10° S
Cosmos 2344 4.2 19:42:27 10° NW 19:50:47 82° SW 20:02:19 10° SSE
Cosmos 2221 3.3 19:46:58 10° SSE 19:50:51 33° E 19:54:45 10° NNE
Cosmos 2084 3.8 19:50:23 10° NW 19:54:03 45° NE 19:57:40 10° ESE
Resurs 01 Rocket 3.3 19:50:48 10° SSW 19:54:49 33° W 19:58:51 10° NNW
Cosmos 2237 Rocket 2.8 19:53:18 10° SW 19:58:57 64° WNW 20:04:39 10° NNE
BREEZE-M DEB (TANK) 2.4 19:56:57 10° SW 20:00:02 37° SSE 20:02:01 10° E
USA 308 3.7 19:58:14 10° W 20:00:20 21° SW 20:02:48 10° SSE
Cosmos 1378 2.8 19:58:06 10° S 20:01:20 65° E 20:04:37 10° NNE
ATLAS 3B R/B 3.1 19:54:21 10° NW 20:02:14 85° SW 20:09:48 11° SE
BREEZE-M DEB (TANK) 4.0 19:59:50 10° SW 20:03:21 45° SSE 20:12:03 10° E
Cosmos 921 Rocket 4.0 20:01:30 10° SSE 20:05:22 30° E 20:09:16 10° NE
Aureole 3 Rocket 3.0 20:02:49 10° N 20:06:21 59° E 20:10:55 10° SSE
GEOS 3 Rocket 4.0 20:02:36 10° NE 20:07:26 39° ESE 20:12:11 10° S
Cosmos 923 Rocket 4.0 20:02:28 10° SSW 20:07:47 82° ESE 20:13:09 10° NNE
SPOT 5 2.8 20:03:08 10° SSE 20:07:49 80° WSW 20:12:19 10° NNW
USA 306 4.0 20:05:19 10° WNW 20:08:50 38° N 20:12:31 10° ENE
Landsat 4 3.7 20:08:45 13° SSE 20:11:50 59° ENE 20:15:17 10° N
ARGOS Delta rocket 4.0 20:09:57 10° SSE 20:15:06 71° ENE 20:19:59 10° N
Cosmos 1943 4.4 20:12:15 12° SE 20:15:53 22° E 20:20:06 10° NE
Okean O Rocket 3.7 20:13:12 10° SSW 20:16:48 24° W 20:20:25 10° NW
USA 234 4.4 20:11:30 10° ENE 20:17:39 45° N 20:23:47 10° WNW
Terra 1.8 20:13:56 12° SSE 20:18:20 72° ENE 20:23:03 10° N
Cosmos 1656 Rocket 3.6 20:17:19 10° NNW 20:22:48 79° ENE 20:27:23 15° SSE
Cosmos 1371 Rocket 4.1 20:17:57 10° NNW 20:23:20 85° WSW 20:28:03 14° SSE
ERS-1 Rocket 3.0 20:18:56 11° SSE 20:23:51 88° WSW 20:28:55 10° NNW
ATLAS 2AS CENTAUR R/B 3.5 20:19:18 10° WSW 20:26:35 61° NW 20:33:36 10° NE
Cosmos 1842 Rocket 4.3 20:24:38 15° SSE 20:27:47 36° E 20:31:49 10° NNE
Meteor 1-14 Rocket 4.4 20:22:38 10° N 20:28:26 66° ENE 20:33:21 15° SSE
SPOT 3 Rocket 3.6 20:24:07 14° SSE 20:28:33 71° ENE 20:33:41 10° N
USA 59 Rocket 2.2 20:28:42 10° N 20:30:52 15° NNE 20:33:20 10° ENE
USA 281 3.3 20:27:32 15° SE 20:33:12 75° ENE 20:39:49 10° NNW
Cosmos 1943 Rocket 3.9 20:29:58 10° NW 20:34:36 26° WSW 20:39:11 10° SSW
Cosmos 1420 Rocket 4.5 20:30:34 10° NNW 20:35:48 58° WSW 20:40:30 13° S
Cosmos 1743 2.5 20:35:11 10° N 20:38:49 84° W 20:41:25 18° S
ISS -3.3 20:37:28 10° WNW 20:40:46 61° N 20:43:45 12° E
ARIANE 5 R/B 4.4 20:38:36 12° ESE 20:41:20 20° ENE 20:44:26 10° NNE
USA 245 3.3 20:42:39 18° SSW 20:43:58 33° W 20:46:03 10° NNW
Cosmos 2279 Rocket 4.1 20:40:05 10° N 20:46:16 66° ENE 20:50:54 18° SSE
Cosmos 2297 3.9 20:41:20 10° NNW 20:47:03 70° WSW 20:51:24 18° SSE
Cosmos 1634 Rocket 4.0 20:40:55 10° N 20:47:15 86° W 20:52:38 15° S
Cosmos 2112 Rocket 4.3 20:44:55 10° SSW 20:50:14 72° WNW 20:55:33 10° NNE
USA 290 4.4 20:48:38 10° NW 20:51:08 21° WSW 20:53:34 10° SSW
Cosmos 1766 Rocket 4.0 20:47:31 10° NNW 20:51:54 60° W 20:55:32 15° S
USA 229 DEB 4.0 20:48:20 10° NW 20:55:45 87° SW 21:01:46 20° SE
USA 229 4.0 20:48:26 10° NW 20:55:51 88° SW 21:01:53 20° SE
Cosmos 1726 1.7 20:54:15 10° N 20:57:23 63° ENE 20:58:35 33° SSE
Spot 2 Rocket 3.9 20:54:06 15° S 20:58:14 59° W 21:03:14 10° NNW
Cosmos 1680 Rocket 4.4 20:55:24 10° SW 21:00:34 52° WNW 21:05:44 10° NNE
Meteor 2-6 Rocket 4.2 20:58:41 10° SSW 21:04:20 84° WNW 21:09:53 10° N
USA 32 4.5 21:01:34 10° SSW 21:06:43 60° W 21:11:55 10° N
Cosmos 1743 Rocket 4.3 21:04:41 10° N 21:08:51 41° ENE 21:10:51 25° SE
Sich 1 3.5 21:09:40 10° N 21:13:55 49° ENE 21:15:51 28° SE
MetOp-A 3.7 21:11:24 25° S 21:13:56 82° WSW 21:18:42 10° NNW
USA 276 2.5 21:13:43 10° W 21:15:14 31° WSW 21:15:14 31° WSW
SL-16 R/B 3.0 21:10:36 10° SW 21:16:07 52° NW 21:21:42 10° NNE
Cosmos 2263 4.3 21:10:54 10° NNW 21:16:34 72° WSW 21:20:00 25° SSE
MOS 1 Rocket 4.1 21:13:56 18° S 21:17:34 53° W 21:22:43 10° NNW
Cosmos 1603 4.2 21:15:41 24° SSE 21:18:31 42° ESE 21:23:51 10° NE
Cosmos 1536 2.7 21:16:42 10° N 21:20:35 88° W 21:22:15 33° S
Cosmos 1975 4.4 21:17:27 10° NNE 21:20:36 22° ENE 21:21:58 19° E
Ariane Rocket 4.0 21:16:49 14° SSW 21:20:47 39° W 21:25:33 10° NNW
Lacrosse 5 3.5 21:16:52 10° WNW 21:20:48 23° SW 21:23:08 17° SSW
Cosmos 2180 Rocket 4.4 21:15:32 10° N 21:21:47 87° E 21:25:40 24° S
USA 267 4.2 21:17:22 10° ENE 21:22:28 24° SE 21:23:23 23° SE
Lacrosse 5 rocket 2.6 21:18:25 10° W 21:22:33 45° NNW 21:26:35 10° NE
Cosmos 1452 Rocket 3.5 21:18:41 10° NNW 21:23:57 86° WSW 21:26:45 28° SSE
Cosmos 1408 Rocket 3.6 21:19:30 10° N 21:23:59 84° W 21:26:12 30° S
Spot 1 4.2 21:20:29 10° N 21:24:31 66° WNW 21:27:37 17° SSW
Meteor 1-27 Rocket 3.8 21:22:18 26° SSE 21:25:16 56° E 21:30:41 10° NNE
Okean 1 3.2 21:25:59 36° S 21:27:25 69° E 21:31:17 10° NNE
Cosmos 1340 3.0 21:24:48 10° N 21:28:04 42° ENE 21:28:49 36° ESE
Cosmos 2221 4.5 21:24:31 10° SW 21:28:13 27° WNW 21:31:55 10° NNW
Cosmos 2369 Rocket 2.9 21:23:49 10° NW 21:29:06 44° WSW 21:32:23 21° S
Cosmos 1626 4.2 21:31:50 12° E 21:31:50 12° E 21:32:49 10° ENE
USA 306 3.0 21:39:11 10° WNW 21:43:01 64° NNE 21:45:08 25° E
GEOS 3 Rocket 4.5 21:40:32 10° NE 21:45:34 51° NW 21:50:31 10° WSW
Meteor 2-17 Rocket 4.4 21:50:28 27° S 21:53:57 85° E 22:00:02 10° N
SL-8 R/B 3.7 21:50:54 10° SW 21:55:31 53° SSE 22:00:10 10° E
Cosmos 1500 Rocket 4.0 21:52:04 10° NNW 21:56:17 52° W 21:57:58 32° SSW
Terra 4.1 21:53:36 10° SW 21:56:27 16° W 21:59:18 10° NW
Cosmos 1943 3.4 21:53:56 11° SW 21:59:21 70° WNW 22:05:03 10° NNE
Cosmos 1733 3.3 21:55:58 10° NNW 21:59:26 58° W 22:00:07 47° SW
USA 234 3.8 21:53:41 10° E 22:00:06 60° NNE 22:06:31 10° WNW
Spot 4 4.2 21:58:25 33° SE 22:00:17 53° ENE 22:04:55 10° N
ALOS 2 3.6 21:58:50 27° ESE 22:00:26 37° ENE 22:04:29 10° N
Meteor 2-4 Rocket 4.1 22:00:27 33° SSE 22:02:53 54° E 22:08:38 10° NNE
H-2A R/B 2.4 22:02:30 46° SE 22:03:39 74° ENE 22:07:51 10° N
Cosmos 1805 Rocket 4.1 22:00:57 10° NNW 22:05:12 52° W 22:06:48 33° SSW
IRIDIUM 104 4.3 22:00:52 10° N 22:06:08 82° E 22:08:14 37° S
Lacrosse 4 Rocket 2.9 22:04:46 10° NNW 22:08:22 29° NE 22:10:34 18° E
Cosmos 1151 Rocket 3.0 22:08:37 41° SSW 22:10:06 84° WNW 22:14:28 10° N
Cosmos 1666 Rocket 3.5 22:08:56 10° N 22:13:17 69° E 22:14:23 47° SE
Cosmos 1092 Rocket 4.0 22:10:25 33° SSE 22:13:17 68° E 22:19:34 10° NNE
Cosmos 1428 Rocket 4.4 22:11:50 31° S 22:14:57 87° E 22:21:07 10° N
IRIDIUM 114 4.3 22:10:01 10° N 22:15:17 84° W 22:17:22 38° S
Cosmos 1302 Rocket 4.0 22:10:08 10° NNW 22:15:20 76° WSW 22:17:13 40° S
SAR-Lupe-3 4.5 22:15:44 62° ESE 22:16:08 71° ENE 22:19:39 10° N
Cosmos 1656 4.2 22:10:50 10° NNW 22:16:09 51° NE 22:19:03 26° ESE
Cosmos 1633 Rocket 3.2 22:12:34 10° N 22:16:58 63° ENE 22:18:08 44° SE
ARIANE 5 R/B 2.9 22:16:04 39° SSW 22:17:22 54° W 22:21:38 10° NNW
ISS -2.8 22:14:11 10° WNW 22:16:32 36° WSW 22:16:32 36° WSW
Cosmos 1340 Rocket 3.2 22:17:22 36° SW 22:18:43 57° WNW 22:22:41 10° N
USA 59 Rocket 0.2 22:17:14 10° NW 22:21:01 71° NE 22:22:59 34° ESE
NOSS 2-1 (E) 3.7 22:18:05 10° NW 22:21:53 72° NE 22:23:49 35° ESE
Cosmos 1992 Rocket 4.1 22:18:30 10° NNW 22:23:44 69° ENE 22:25:48 37° SE
IRIDIUM 103 4.4 22:19:13 10° N 22:24:26 71° W 22:26:30 37° SSW
CZ-2C R/B 4.1 22:20:50 10° N 22:25:19 57° WNW 22:27:22 29° SW
H-2A R/B 3.6 22:21:48 10° NE 22:25:22 23° E 22:25:53 23° ESE
Cosmos 1697 Rocket 4.2 22:21:46 10° NNW 22:26:46 31° NE 22:31:18 12° ESE
Cosmos 614 Rocket 4.0 22:27:44 42° S 22:29:24 67° ESE 22:34:35 10° NNE
Cosmos 1766 3.5 22:26:45 10° N 22:30:25 50° ENE 22:30:52 47° ESE
Cosmos 2195 Rocket 4.5 22:27:33 31° SSW 22:30:38 80° W 22:36:47 10° N
Cosmos 1980 Rocket 4.4 22:27:38 10° N 22:31:54 21° NE 22:36:09 10° E
NOSS 2-1 (D) 3.4 22:29:42 10° NW 22:33:30 89° WSW 22:34:55 45° SE
Cosmos 1470 4.0 22:31:00 10° NNE 22:34:14 27° ENE 22:34:54 25° E
Cosmos 1707 4.5 22:34:21 19° E 22:34:23 19° E 22:37:01 10° NE
Cosmos 1805 4.0 22:36:12 10° NNW 22:39:40 38° W 22:40:09 36° WSW
Spot 2 4.4 22:50:57 47° SSW 22:52:03 62° WSW 22:56:49 10° NNW
Cosmos 1975 3.8 22:52:59 10° NNW 22:56:35 34° W 22:57:09 33° WSW
NOSS 3-3 (A) 4.1 22:59:41 41° SSE 23:01:04 49° ESE 23:07:08 10° NE
Lacrosse 5 rocket 3.6 22:58:00 10° WNW 23:01:39 27° N 23:05:12 10° ENE
Cosmos 1626 2.5 23:04:41 43° WNW 23:04:42 43° WNW 23:07:50 10° N
Cosmos 1269 Rocket 4.0 23:04:35 45° S 23:06:10 73° ESE 23:11:26 10° NNE
USA 267 3.1 22:59:39 10° ENE 23:06:13 74° SE 23:10:42 22° SW
Cosmos 1140 Rocket 4.4 23:05:26 30° SE 23:06:32 33° ESE 23:11:12 10° NE
Cosmos 1674 2.5 23:07:50 66° E 23:07:50 66° E 23:11:13 10° NNE
NOSS 2-1 (C) 3.9 23:04:55 10° NW 23:08:44 49° SW 23:09:07 47° SW
Cosmos 2082 Rocket 4.2 23:08:47 12° ESE 23:10:28 14° E 23:13:09 10° ENE
PSLV R/B 3.6 23:08:22 10° NNE 23:13:00 79° ESE 23:13:59 54° S
NOSS 3-4 (A) 4.5 23:09:34 10° NW 23:16:03 53° NE 23:23:32 10° ESE
NOSS 3-4 (C) 4.5 23:09:37 10° NW 23:16:06 53° NE 23:23:34 10° ESE
USA 306 4.1 23:13:06 10° WNW 23:15:15 26° W 23:15:15 26° W
Cosmos 1833 Rocket 3.1 23:17:10 39° SSE 23:18:39 49° ESE 23:24:03 10° NE
Cosmos 44 Rocket 4.0 23:17:49 10° NNW 23:22:41 50° NE 23:26:07 18° ESE
Cosmos 2315 Rocket 4.4 23:18:11 10° N 23:24:22 57° ENE 23:27:37 28° SE
S3M 4.0 23:19:11 10° N 23:25:35 82° E 23:28:28 36° SSE
NOSS 3-3 (C) 3.8 23:26:06 41° SSW 23:28:05 70° SE 23:34:28 10° NE
SL-24 R/B 4.3 23:25:45 10° N 23:30:09 69° WNW 23:31:32 44° SW
Cosmos 2285 Rocket 4.4 23:29:13 35° SSE 23:31:34 51° ESE 23:37:40 10° NNE
Cosmos 1515 Rocket 3.8 23:31:37 46° SW 23:32:35 59° WNW 23:36:53 10° N
GP-B 3.2 23:30:30 10° N 23:34:54 67° E 23:35:54 49° SSE
Cosmos 1400 Rocket 4.3 23:34:57 24° ESE 23:35:40 25° E 23:39:00 10° NE
ALOS 2 3.9 23:36:13 26° WSW 23:36:51 27° W 23:40:35 10° NW
Cosmos 1553 Rocket 4.4 23:31:33 10° NNW 23:37:20 47° W 23:39:39 32° SW
SL-8 R/B 3.5 23:33:02 10° W 23:37:49 84° S 23:42:37 10° E
Cosmos 1869 Rocket 3.4 23:37:41 10° N 23:42:03 90° W 23:42:58 55° S
USA 234 3.2 23:38:50 23° SE 23:43:06 65° SW 23:49:38 10° WNW
Meteor 1-13 Rocket 4.3 23:41:22 39° S 23:43:42 79° E 23:49:39 10° NNE
Cosmos 1733 Rocket 4.1 23:41:07 10° N 23:45:10 38° ENE 23:46:57 26° ESE
Lacrosse 4 Rocket 2.1 23:42:56 10° NW 23:46:28 37° WSW 23:46:28 37° WSW
Cosmos 1346 Rocket 4.5 23:50:40 10° N 23:54:01 27° ENE 23:55:55 18° ESE
